Wind_Speed
25 25 25 25 24 24 24 24 24 25 24 25 27 28 29 31 32 33 35 37 38 40 40 41 43 44 45 47 48 49 51 52 53 53 54 56 57 57 57 58 59 59 59
25 25 25 25 25 25 25 25 25 25 26 27 28 30 31 33 34 36 38 39 40 41 42 43 44 45 46 47 48 49 51 52 52 53 54 56 57 58 58 58 58 57 57
26 26 25 25 25 25 25 26 26 27 28 29 30 32 33 35 36 38 39 40 41 41 42 43 44 44 44 45 46 47 48 49 50 51 52 52 53 53 53 54 54 53 53
26 26 25 25 26 26 26 27 28 29 30 31 32 33 34 36 37 38 39 40 41 41 42 42 42 42 43 43 44 45 45 46 46 46 46 46 47 48 48 47 46 46 46
26 26 26 26 26 27 27 27 28 29 30 31 32 33 34 35 36 37 38 38 39 39 39 39 40 40 40 40 40 40 40 40 40 40 39 39 39 38 38 38 37 37 36
26 26 26 26 26 26 26 26 27 28 29 30 31 32 33 34 34 35 35 36 37 37 36 35 35 35 35 35 35 34 34 34 34 33 33 32 31 31 31 30 30 30 30
25 26 25 25 25 26 26 26 27 28 28 28 29 30 31 31 32 33 33 33 32 31 30 30 30 30 30 29 29 30 29 29 28 27 26 26 25 25 25 25 25 25 24
24 24 24 24 24 25 25 25 26 26 26 26 27 28 29 29 29 29 29 27 26 26 27 26 26 26 25 25 25 25 25 24 23 22 22 22 22 22 21 21 21 21 21
21 21 21 22 22 22 23 23 23 23 23 23 24 24 25 25 25 24 23 22 21 22 22 22 21 21 21 21 21 21 21 20 19 19 19 18 18 17 17 17 16 16 16
18 19 19 19 20 20 20 21 20 20 21 21 21 21 21 21 20 18 17 17 17 17 17 17 16 17 17 18 18 18 18 17 17 16 16 15 15 14 14 14 14 14 13
16 16 17 17 18 18 19 19 19 18 18 18 18 18 18 16 16 15 14 14 14 14 15 15 15 16 17 17 17 16 16 16 15 15 14 14 14 13 13 13 13 12 12
16 16 17 17 17 17 17 17 16 16 16 16 15 15 14 14 13 13 12 12 12 13 13 14 15 15 16 16 16 15 15 15 14 14 14 14 14 13 13 13 12 12 11
15 16 16 16 16 15 15 14 14 13 13 13 13 12 12 11 11 11 11 11 12 12 13 13 14 15 15 15 15 15 15 14 14 14 14 14 13 13 12 12 12 11 11
14 14 14 14 14 13 13 12 12 11 11 10 10 10 10 9 9 10 10 11 11 12 12 13 14 15 15 15 15 15 14 14 14 14 14 13 12 12 11 11 10 10 10
12 13 12 12 12 11 10 10 10 9 9 8 8 8 8 8 8 9 9 10 11 12 13 13 14 15 15 15 15 15 14 14 14 13 12 12 12 11 10 10 9 9 9
12 12 11 11 11 10 9 9 8 7 7 6 7 7 7 7 8 8 9 10 11 11 12 13 14 14 14 15 15 14 14 14 13 12 12 11 11 10 9 8 8 9 9
10 10 10 9 9 8 7 6 6 6 5 5 6 6 6 7 7 8 8 9 10 11 12 13 14 14 14 14 14 13 13 12 12 11 11 10 10 9 8 8 8 8 9
7 7 7 6 6 6 6 5 5 5 4 5 5 5 6 7 7 8 8 9 10 11 12 13 13 14 14 14 13 13 12 11 11 10 10 10 9 8 7 7 7 8 8
5 5 5 5 5 5 4 4 4 4 4 5 5 5 6 7 7 8 8 9 10 11 12 13 13 13 13 13 12 12 11 10 10 9 9 8 8 7 7 6 7 7 8
4 4 3 3 3 3 3 3 3 4 4 4 5 5 6 6 7 8 8 9 10 11 12 13 13 12 12 12 12 11 11 10 9 8 8 7 7 7 7 7 7 8 9
3 2 2 1 1 1 2 2 2 3 3 4 4 5 5 6 7 8 8 9 10 11 12 12 12 12 12 11 11 11 10 9 8 8 7 7 6 7 7 7 8 9 9
3 2 2 1 0 0 0 1 1 2 3 3 4 5 5 6 7 8 8 9 10 10 11 12 12 11 11 11 11 10 10 9 8 7 7 7 7 7 8 8 9 10 11
6 5 4 3 3 2 2 2 2 2 3 3 4 5 5 6 7 7 8 8 9 10 11 11 11 11 10 10 10 10 9 9 8 8 8 8 8 8 9 9 10 11 12
9 8 7 6 5 4 3 3 2 2 3 3 4 4 5 6 6 7 8 8 9 10 11 11 11 11 10 10 10 9 9 9 8 8 8 8 9 9 10 11 12 12 13
11 10 9 8 7 6 5 5 4 4 4 4 4 5 5 6 7 7 8 8 9 10 11 11 11 11 11 10 10 10 10 9 9 9 9 10 10 11 11 12 13 14 14
12 11 11 10 10 9 8 7 7 6 6 6 6 6 7 7 8 8 9 9 10 10 10 11 11 11 11 11 11 11 11 11 10 10 11 11 12 12 13 13 14 14 15
Wind_Direction
267 269 270 273 273 272 274 275 276 277 278 277 278 280 281 283 284 284 285 287 288 288 288 287 286 286 286 285 285 284 284 283 282 280 279 278 277 277 276 276 276 276 276
269 270 270 272 273 274 276 278 279 279 279 279 281 282 283 284 286 287 288 289 289 289 289 289 288 288 287 286 286 285 284 283 282 281 280 279 278 278 277 276 276 276 276
270 272 271 273 274 274 277 278 280 280 281 281 282 283 285 286 287 289 290 290 290 290 290 290 289 289 288 288 287 287 285 284 284 283 282 281 281 280 279 278 278 279 279
269 270 271 272 274 275 277 277 278 279 280 281 283 285 286 288 289 290 291 291 291 291 291 291 290 290 289 289 289 288 288 287 287 286 285 284 283 283 282 282 282 282 282
268 269 271 273 274 275 276 277 278 279 281 283 285 287 288 289 290 291 292 292 292 292 291 291 290 291 291 292 292 292 292 292 290 290 290 289 288 287 287 287 287 286 286
268 269 271 272 273 274 275 276 279 280 282 284 286 288 290 291 292 292 293 293 293 292 292 292 294 295 295 296 297 297 297 296 295 295 295 294 294 293 293 293 291 289 289
266 268 269 270 272 273 274 277 279 281 284 286 288 290 292 293 294 295 295 295 295 295 295 297 299 300 300 301 302 303 304 304 304 303 302 300 301 299 298 297 296 296 296
266 268 269 270 272 274 275 277 280 283 285 287 290 292 294 296 298 299 298 297 298 299 301 302 304 304 305 307 309 310 311 312 313 313 312 309 307 306 304 302 301 302 302
268 270 270 272 273 275 277 279 282 285 287 290 293 296 298 300 302 302 301 302 304 306 308 311 313 313 315 318 320 321 320 320 319 320 319 319 318 317 316 314 313 312 311
269 270 270 272 273 276 278 280 283 285 288 292 296 299 302 304 305 307 309 310 314 317 320 323 326 329 331 332 332 332 331 331 331 331 331 333 333 333 329 327 326 323 321
269 271 272 274 275 276 278 281 284 286 289 293 297 300 303 306 308 310 313 316 319 323 327 330 332 335 337 338 337 337 338 339 340 341 341 341 341 341 341 340 337 333 331
271 272 273 275 277 278 280 281 283 285 290 295 299 302 304 307 311 314 319 322 325 327 328 330 333 335 337 339 340 341 342 343 344 345 345 345 345 345 345 346 346 345 345
274 274 275 276 277 278 279 280 282 286 291 296 299 302 304 308 312 318 324 326 328 330 331 333 336 337 338 340 341 341 342 343 345 344 343 345 346 347 348 349 351 353 354
278 278 278 278 278 277 277 278 281 286 291 293 297 299 303 310 318 323 327 329 331 333 334 336 337 337 337 338 339 340 341 342 343 343 344 346 349 350 350 351 354 357 1
280 279 280 279 277 275 274 275 280 284 288 291 297 301 307 314 319 322 329 333 335 335 335 336 337 338 338 339 340 341 341 342 343 345 347 350 351 352 354 356 1 5 9
282 281 279 277 274 272 271 272 275 280 284 289 297 304 310 313 316 321 329 333 335 336 336 337 338 339 340 341 342 343 344 344 346 348 349 350 351 354 358 3 9 15 22
285 283 280 276 271 269 268 266 269 274 279 288 298 304 309 315 320 325 329 333 335 337 338 339 340 342 344 345 345 344 345 346 348 350 352 354 356 359 4 11 17 25 32
290 287 281 274 267 263 263 261 261 264 275 287 298 307 313 318 324 328 331 334 338 339 341 342 343 343 344 344 345 346 347 349 350 352 354 358 3 6 12 20 29 36 41
299 295 285 275 270 264 257 251 252 259 274 288 300 311 319 324 328 330 333 338 341 343 344 345 346 346 346 348 349 350 352 353 355 356 359 4 11 18 25 35 43 47 50
309 302 289 277 273 261 248 248 253 264 280 294 306 317 324 330 335 336 337 341 343 345 346 348 350 350 351 352 353 355 355 357 -0 3 7 15 24 33 41 49 54 57 59
328 322 300 269 265 262 254 260 265 279 294 304 314 323 331 336 339 339 341 344 346 347 350 353 354 354 355 357 359 1 3 7 11 16 22 31 40 46 52 59 62 64 64
38 43 55 70 67 38 327 295 293 305 315 318 323 329 336 341 344 346 347 348 350 353 356 357 357 358 0 3 5 8 12 18 25 32 38 46 54 60 64 67 69 69 69
59 62 63 63 60 50 34 13 351 335 334 336 338 342 348 351 352 353 355 356 358 360 1 1 3 5 7 9 12 16 22 29 37 44 51 56 63 70 74 75 75 76 76
59 61 61 61 57 51 44 35 21 7 358 353 354 357 1 1 2 3 5 7 8 8 8 8 10 13 14 16 20 26 32 40 47 53 59 64 70 76 79 81 82 83 82
60 61 59 57 54 51 47 42 35 33 32 27 23 22 21 19 19 19 20 19 18 16 17 18 20 23 25 27 32 38 44 50 56 61 66 70 75 79 83 85 86 86 85
57 57 56 56 55 54 53 51 50 50 47 44 43 42 42 41 37 33 30 28 26 26 28 30 32 33 36 40 45 50 54 58 63 68 72 76 80 83 86 88 88 87 86
Height
5768 5769 5769 5770 5771 5772 5773 5774 5775 5775 5775 5776 5776 5776 5776 5775 5775 5774 5772 5770 5769 5767 5764 5762 5760 5757 5754 5751 5748 5744 5741 5737 5733 5730 5726 5723 5719 5716 5712 5709 5705 5702 5699
5762 5762 5763 5764 5765 5766 5766 5767 5767 5768 5768 5768 5768 5767 5767 5766 5765 5764 5762 5760 5758 5755 5753 5750 5747 5744 5741 5737 5734 5730 5726 5722 5718 5714 5710 5706 5702 5698 5695 5692 5689 5686 5683
5755 5756 5756 5757 5758 5758 5759 5759 5760 5760 5760 5760 5759 5759 5758 5757 5755 5753 5751 5749 5746 5744 5741 5738 5734 5731 5728 5724 5720 5716 5711 5707 5703 5698 5694 5689 5685 5682 5678 5675 5673 5670 5667
5747 5748 5749 5750 5750 5751 5751 5751 5752 5752 5752 5751 5751 5750 5748 5747 5745 5743 5740 5738 5735 5732 5729 5725 5722 5718 5715 5711 5706 5702 5697 5693 5688 5684 5679 5675 5671 5667 5664 5661 5658 5656 5654
5740 5741 5741 5742 5742 5743 5743 5743 5743 5743 5743 5743 5742 5740 5739 5737 5735 5732 5730 5727 5724 5720 5717 5714 5710 5706 5702 5698 5694 5689 5684 5680 5675 5670 5666 5662 5658 5654 5652 5649 5647 5645 5643
5732 5733 5734 5734 5735 5735 5736 5736 5736 5735 5735 5734 5733 5731 5730 5727 5725 5722 5719 5716 5713 5710 5706 5703 5699 5695 5691 5687 5683 5678 5674 5669 5664 5660 5656 5652 5648 5645 5643 5640 5638 5636 5635
5725 5726 5727 5727 5727 5728 5728 5728 5728 5728 5727 5726 5724 5723 5721 5718 5715 5713 5709 5706 5703 5699 5696 5692 5689 5685 5681 5677 5673 5669 5665 5660 5656 5652 5647 5644 5641 5638 5636 5634 5632 5630 5628
5718 5719 5719 5720 5720 5720 5721 5721 5720 5720 5719 5718 5716 5714 5712 5710 5707 5703 5700 5697 5694 5691 5687 5684 5681 5677 5673 5670 5666 5662 5657 5653 5649 5645 5642 5638 5636 5633 5631 5629 5626 5624 5623
5712 5712 5713 5713 5713 5714 5714 5714 5713 5713 5712 5711 5709 5707 5705 5702 5699 5696 5693 5690 5687 5684 5680 5677 5674 5670 5667 5663 5660 5656 5652 5649 5645 5641 5638 5635 5632 5629 5627 5625 5622 5621 5619
5706 5706 5707 5707 5707 5707 5707 5707 5707 5706 5705 5704 5702 5700 5698 5695 5692 5689 5687 5684 5681 5679 5676 5672 5669 5666 5663 5659 5656 5653 5649 5646 5642 5638 5635 5632 5629 5627 5624 5622 5620 5618 5616
5700 5701 5701 5701 5701 5701 5701 5700 5700 5700 5699 5697 5696 5694 5692 5690 5688 5685 5683 5680 5678 5675 5672 5669 5666 5663 5660 5657 5654 5651 5647 5644 5640 5637 5634 5631 5628 5625 5623 5620 5618 5616 5614
5695 5695 5695 5695 5695 5695 5695 5695 5694 5694 5693 5692 5691 5689 5688 5686 5684 5681 5679 5677 5674 5672 5669 5667 5664 5661 5658 5655 5652 5649 5646 5642 5639 5636 5633 5630 5627 5625 5622 5619 5617 5615 5613
5690 5690 5690 5690 5690 5690 5690 5690 5689 5689 5689 5688 5687 5685 5684 5683 5681 5679 5676 5674 5672 5670 5667 5664 5662 5659 5656 5653 5650 5647 5644 5641 5638 5635 5632 5629 5627 5624 5621 5619 5617 5614 5612
5685 5685 5685 5685 5685 5685 5685 5685 5685 5685 5684 5684 5683 5682 5681 5680 5678 5676 5674 5672 5670 5667 5665 5662 5660 5657 5654 5651 5648 5646 5643 5640 5637 5634 5631 5628 5626 5623 5621 5618 5616 5614 5612
5681 5681 5680 5681 5681 5681 5681 5681 5681 5681 5681 5681 5680 5679 5678 5677 5675 5674 5672 5670 5668 5666 5663 5661 5658 5655 5652 5649 5646 5644 5641 5638 5635 5633 5630 5628 5625 5623 5620 5618 5616 5614 5612
5677 5677 5676 5676 5677 5677 5677 5678 5678 5678 5678 5678 5677 5677 5676 5675 5673 5672 5670 5668 5666 5664 5661 5659 5656 5653 5650 5648 5645 5642 5639 5637 5634 5631 5629 5627 5625 5622 5620 5618 5616 5614 5612
5673 5673 5673 5673 5673 5674 5674 5675 5675 5676 5676 5676 5675 5674 5674 5673 5671 5670 5668 5666 5664 5662 5660 5657 5654 5652 5649 5646 5643 5641 5638 5635 5633 5631 5628 5626 5624 5622 5620 5618 5617 5615 5613
5670 5670 5670 5670 5670 5671 5672 5672 5673 5673 5674 5674 5673 5673 5672 5671 5669 5668 5666 5665 5663 5661 5658 5656 5653 5650 5648 5645 5642 5640 5637 5635 5632 5630 5628 5626 5624 5622 5620 5619 5617 5616 5614
5668 5668 5667 5668 5668 5669 5669 5670 5671 5671 5672 5672 5671 5671 5670 5669 5668 5667 5665 5663 5661 5659 5657 5654 5652 5649 5646 5644 5641 5639 5636 5634 5632 5629 5627 5626 5624 5622 5620 5619 5618 5616 5615
5666 5666 5666 5666 5667 5667 5668 5669 5669 5670 5670 5670 5670 5669 5669 5668 5667 5665 5664 5662 5660 5658 5656 5653 5651 5648 5645 5643 5640 5638 5636 5633 5631 5629 5627 5626 5624 5623 5621 5620 5619 5618 5616
5665 5665 5665 5666 5666 5666 5667 5668 5668 5668 5669 5669 5668 5668 5667 5666 5665 5664 5663 5661 5659 5657 5655 5652 5650 5647 5645 5642 5640 5638 5635 5633 5631 5629 5627 5626 5625 5623 5622 5621 5620 5619 5618
5665 5665 5665 5665 5665 5666 5666 5667 5667 5667 5667 5667 5667 5667 5666 5665 5664 5663 5662 5660 5659 5656 5654 5652 5649 5647 5645 5642 5640 5638 5635 5633 5631 5630 5628 5627 5626 5624 5623 5623 5622 5621 5620
5666 5665 5665 5665 5666 5666 5666 5666 5667 5667 5667 5666 5666 5666 5665 5665 5664 5663 5661 5660 5658 5656 5654 5652 5649 5647 5645 5642 5640 5638 5636 5634 5632 5631 5629 5628 5627 5626 5625 5624 5624 5623 5622
5668 5667 5667 5667 5667 5667 5667 5667 5666 5666 5666 5666 5666 5665 5665 5664 5663 5662 5661 5659 5658 5656 5654 5652 5649 5647 5645 5643 5641 5639 5637 5635 5634 5632 5631 5630 5629 5628 5627 5627 5626 5625 5625
5670 5670 5669 5669 5668 5668 5668 5667 5667 5666 5666 5666 5666 5665 5665 5664 5663 5662 5661 5660 5658 5656 5654 5652 5650 5648 5646 5644 5642 5640 5638 5637 5635 5634 5633 5632 5631 5631 5630 5630 5629 5628 5628
5673 5673 5672 5671 5670 5670 5669 5668 5668 5667 5667 5667 5666 5666 5666 5665 5664 5663 5662 5661 5659 5657 5656 5654 5652 5650 5648 5646 5644 5642 5641 5639 5638 5637 5636 5635 5635 5634 5634 5633 5633 5632 5632